FENGYUN 1C DEB, 31160

Orbit data source: Space-Track

FENGYUN 1C DEB, 31160 is space debris in SSO originally from a launch on Mon, 10 May 1999 UTC launched from the Taiyaun Space Center, China (TSC). Fengyun 1C debris stems from the Chinese weather satellite Fengyun-1C, which was intentionally destroyed by a Chinese anti-satellite missile in 2007. This event dramatically increased the amount of space debris, with thousands of trackable fragments posing hazards to satellites and human spaceflight. The Fengyun 1C debris cloud has become a focal point in discussions about space sustainability and the need for international regulations to prevent the creation of new debris.

Loading next visibility...
Identifier
31160, 1999-025BHN
Orbit
SSO
Country
Flag of CNCN / PRC
Related business
Manufacturer
Unknown
Mission
Spacecraft
Bus & Motor
Unknown
Mass
Unknown
Launch date (UTC)
1999-05-10 (27 years ago)
Launch vehicle
Unknown
Launch site
Taiyaun Space Center, China (TSC)
Object type
Payload
Rocket body
Debris
Shape & HBR
Unknown shape, 0.1 m
Radar Cross Section
Small (<0.1 m²)

Expand to show TLE details & history
Last TLE update: 1 day ago

TLE from 1 day ago
0 FENGYUN 1C DEB
1 31160U 99025BHN 26123.43953121  .00000305  00000-0  23595-3 0  9993
2 31160  99.0568 183.4254 0056069 222.6118 137.0689 13.99630867715813
Epoch: 2026-05-03T10:32Z
TLE epoch observation values (Epoch: 2026-05-03T10:32:55.496Z)
Latitude
-0.00007°
Longitude
163.85112°
Altitude
927.918 km
Speed
7.373 km/s
True Right ascension
12h 13m 42s
True Declination
0° 00' 00"
Sunlit
Object was in full shadow at epoch
Visualization orbit readout
Latitude
Unknown
Longitude
Unknown
Altitude
Unknown
Speed
Unknown
Apparent Right ascension
Unknown
Apparent Declination
Unknown
Sunlit
N/A
Visualization observer readout
Local Sidereal Time
22:40:23
Azimuth
Unknown
Elevation
Unknown
Doppler factor
Unknown
Orbital elements
Apogee altitude
933.041 km
Perigee altitude
851.512 km
Semi-major axis
7,270.413 km
Eccentricity
0.00561
Inclination
99.0568°
RAAN
183.4254°
Arg. of periapsis
222.6118°
True anomaly
137.50428°
Mean anomaly
137.0689°
Eccentric anomaly
137.28681°
Mean motion
3.5011 °/min
Orbital period
102.82 mins
BSTAR
0.00023595
Loading maneuver chart data...
Computing Atmospheric mass density...

Documentation

Showing up to 5 results
|